This is the latest recevied weather packets stored in our database for station/object W8BS. If no packets are shown the sender has not sent any weather packets the latest 10 day(s).
| Time | Temp. | Humidity | Pressure | Rain* | Wind** | Luminosity | Snow |
|---|---|---|---|---|---|---|---|
| 1778072210 | 13.33° C | 99% | 1007.8 hPa | 0 mm | - | 37 W/m² | - |
| 1778071907 | 13.33° C | 99% | 1007.9 hPa | 1.27 mm | - | 33 W/m² | - |
| 1778071605 | 13.33° C | 99% | 1008.1 hPa | 1.27 mm | - | 56 W/m² | - |
| 1778071302 | 13.33° C | 99% | 1007.7 hPa | 1.78 mm | - | 50 W/m² | - |
| 1778071000 | 13.33° C | 99% | 1008 hPa | 1.78 mm | - | 42 W/m² | - |
| 1778070698 | 13.33° C | 99% | 1008 hPa | 0 mm | - | 23 W/m² | - |
| 1778070395 | 13.33° C | 99% | 1008 hPa | 0 mm | - | 23 W/m² | - |
| 1778070093 | 13.33° C | 99% | 1007.9 hPa | 1.27 mm | - | 12 W/m² | - |
| 1778069790 | 13.33° C | 99% | 1007.8 hPa | 1.27 mm | - | 25 W/m² | - |
| 1778069486 | 13.33° C | 99% | 1007.9 hPa | 0 mm | - | 14 W/m² | - |
| 1778069184 | 13.33° C | 99% | 1007.9 hPa | 0 mm | - | 18 W/m² | - |
| 1778068881 | 12.78° C | 99% | 1007.7 hPa | 0 mm | - | 15 W/m² | - |
| 1778068580 | 12.78° C | 99% | 1007.6 hPa | 1.78 mm | - | 12 W/m² | - |
| 1778068278 | 12.78° C | 99% | 1007.6 hPa | 1.78 mm | - | 22 W/m² | - |
| 1778067974 | 12.78° C | 99% | 1007.6 hPa | 6.1 mm | - | 16 W/m² | - |
| 1778067673 | 12.78° C | 99% | 1007.6 hPa | 10.67 mm | - | 16 W/m² | - |
| 1778067370 | 12.78° C | 99% | 1007.6 hPa | 4.32 mm | - | 10 W/m² | - |
| 1778067068 | 12.78° C | 99% | 1007.7 hPa | 6.1 mm | - | 8 W/m² | - |
| 1778066764 | 12.78° C | 99% | 1007.5 hPa | 4.32 mm | - | 6 W/m² | - |
| 1778066462 | 12.78° C | 99% | 1007.6 hPa | 6.1 mm | - | 8 W/m² | - |
| 1778066159 | 12.78° C | 99% | 1007.4 hPa | 4.83 mm | - | 5 W/m² | - |
| 1778065856 | 12.22° C | 99% | 1007.2 hPa | 1.78 mm | - | 7 W/m² | - |
| 1778065554 | 12.22° C | 99% | 1007.4 hPa | 0 mm | - | 14 W/m² | - |
| 1778065251 | 12.22° C | 99% | 1007.2 hPa | 0 mm | - | 10 W/m² | - |
| 1778064947 | 12.22° C | 99% | 1007.5 hPa | 1.27 mm | - | 7 W/m² | - |
* Rain latest hour (hover to see other rain measurements)
** Current wind speed in m/s (hover to see current wind gust speed)